Wainwright, AK

3:50 PM AKDT on September 25, 2016 (GMT -0800)
Wainwright

Weather History for PAWI - October, 2013

Change the Weather History Date:

Sunday, October 20, 2013

  Actual Average (PABR) Record (PABR)
Temperature  
Mean Temperature 32 °F 15 °F  
Max Temperature 33 °F 20 °F 37 °F (1925)
Min Temperature 30 °F 10 °F -17 °F (1933)
Degree Days  
Heating Degree Days 34 50  
Month to date heating degree days 889  
Since 1 July heating degree days 3429  
Cooling Degree Days 0    
Month to date cooling degree days  
Year to date cooling degree days  
Moisture  
Dew Point 29 °F    
Average Humidity 90    
Maximum Humidity 93    
Minimum Humidity 87    
Precipitation  
Precipitation 0.01 in 0.01 in 0.13 in (2003)
Month to date precipitation 0.29  
Year to date precipitation 4.06  
Snow  
Snow 0.00 in 0.30 in 2.10 in (2011)
Month to date snowfall 5.8  
Since 1 July snowfall 11.3  
Since 1 September snowfall 10.2  
Snow Depth -    
Sea Level Pressure  
Sea Level Pressure 29.52 in    
Wind  
Wind Speed 13 mph (NE)    
Max Wind Speed 18 mph    
Max Gust Speed 24 mph    
Visibility 3 miles    
Events Snow    
T = Trace of Precipitation, MM = Missing Value Source: NWS Daily Summary

Daily Weather History Graph

Daily Weather History Graph

Search for Another Location

Airport or City:

Trip Planner

Search our weather history database for the weather conditions in past years. The results will help you decide how hot, cold, wet, or windy it might be!

Date:

Astronomy

Oct. 20, 2013 Rise Set
Actual Time 10:21 AM AKDT 6:26 PM AKDT
Civil Twilight 9:13 AM AKDT 7:34 PM AKDT
Nautical Twilight 7:59 AM AKDT 8:47 PM AKDT
Astronomical Twilight 6:45 AM AKDT 10:00 PM AKDT
Moon 6:02 PM AKDT (10/20) 1:46 PM AKDT (10/20)
Length of Visible Light 10h 20m
Length of Day
8h 04m
Waning Gibbous, 96% of the Moon is Illuminated
Oct 20
Waning Gibbous
Oct 26
Last Quarter
Nov 3
New
Nov 9
First Quarter
Nov 17
Full

Hourly Weather History & Observations

Time (AKDT) Temp. Windchill Dew Point Humidity Pressure Visibility Wind Dir Wind Speed Gust Speed Precip Events Conditions
12:53 AM 33.1 °F 21.9 °F 30.0 °F 89% 29.41 in 10.0 mi NE 18.4 mph 24.2 mph N/A   Overcast
1:53 AM 33.1 °F 23.0 °F 30.0 °F 89% 29.41 in 10.0 mi NE 15.0 mph - N/A   Overcast
2:53 AM 33.1 °F 23.4 °F 30.0 °F 89% 29.42 in 8.0 mi NE 13.8 mph - 0.00 in Snow Light Snow
3:51 AM 33.8 °F 23.9 °F 30.2 °F 87% 29.42 in 2.5 mi ENE 15.0 mph - 0.01 in Snow Light Snow
3:53 AM 33.1 °F 23.0 °F 30.0 °F 89% 29.43 in 2.0 mi ENE 15.0 mph - 0.01 in Snow Light Snow
4:02 AM 33.8 °F 23.9 °F 30.2 °F 87% 29.42 in 1.8 mi NE 15.0 mph - 0.00 in Snow Light Snow
4:53 AM 32.0 °F 22.5 °F 30.0 °F 92% 29.44 in 2.0 mi NE 12.7 mph - 0.00 in Snow Light Snow
5:11 AM 32.0 °F 23.0 °F 30.2 °F 93% 29.43 in 3.0 mi NE 11.5 mph - 0.00 in Snow Light Snow
5:53 AM 32.0 °F 21.2 °F 30.0 °F 92% 29.44 in 3.0 mi NE 16.1 mph - 0.00 in Snow Light Snow
6:04 AM 32.0 °F 21.6 °F 30.2 °F 93% 29.43 in 2.5 mi NE 15.0 mph - 0.00 in Snow Light Snow
6:51 AM 32.0 °F 21.6 °F 30.2 °F 93% 29.44 in 1.0 mi NE 15.0 mph - 0.00 in Snow Light Snow
6:53 AM 32.0 °F 21.6 °F 30.0 °F 92% 29.44 in 1.0 mi NE 15.0 mph - 0.00 in Snow Light Snow
7:14 AM 32.0 °F 22.1 °F 30.2 °F 93% 29.44 in 1.5 mi NE 13.8 mph - 0.00 in Snow Light Snow
7:53 AM 32.0 °F 21.2 °F 30.0 °F 92% 29.45 in 1.8 mi NE 16.1 mph - 0.00 in Snow Light Snow
8:03 AM 32.0 °F 22.1 °F 30.2 °F 93% 29.45 in 1.5 mi NE 13.8 mph - 0.00 in Snow Light Snow
8:53 AM 32.0 °F 20.5 °F 28.9 °F 88% 29.47 in 1.5 mi NE 18.4 mph - 0.00 in Snow Light Snow
9:53 AM 32.0 °F 21.2 °F 28.9 °F 88% 29.48 in 1.2 mi NE 16.1 mph - 0.00 in Snow Light Snow
10:04 AM 32.0 °F 20.8 °F 28.4 °F 87% 29.47 in 2.0 mi NE 17.3 mph - 0.00 in Snow Light Snow
10:25 AM 32.0 °F 21.2 °F 28.4 °F 87% 29.48 in 1.8 mi NE 16.1 mph - 0.00 in Snow Light Snow
10:53 AM 32.0 °F 20.8 °F 28.9 °F 88% 29.49 in 1.0 mi NE 17.3 mph - 0.00 in Snow Light Snow
11:53 AM 32.0 °F 21.6 °F 28.9 °F 88% 29.50 in 1.0 mi ENE 15.0 mph - 0.00 in Snow Light Snow
12:50 PM 32.0 °F 21.2 °F 28.4 °F 87% 29.51 in 0.8 mi NE 16.1 mph - 0.00 in Snow Light Snow
12:53 PM 32.0 °F 21.6 °F 28.9 °F 88% 29.51 in 1.0 mi NE 15.0 mph - 0.00 in Snow Light Snow
1:51 PM 32.0 °F 22.5 °F 28.4 °F 87% 29.52 in 2.0 mi NE 12.7 mph - 0.00 in Snow Light Snow
1:53 PM 32.0 °F 22.5 °F 28.9 °F 88% 29.52 in 2.0 mi NE 12.7 mph - 0.00 in Snow Light Snow
2:10 PM 32.0 °F 23.0 °F 28.4 °F 87% 29.53 in 1.5 mi NE 11.5 mph - 0.00 in Snow Light Snow
2:53 PM 32.0 °F 22.5 °F 28.9 °F 88% 29.53 in 2.0 mi NE 12.7 mph - 0.00 in Snow Light Snow
3:10 PM 32.0 °F 22.5 °F 28.4 °F 87% 29.53 in 3.0 mi NE 12.7 mph - 0.00 in Snow Light Snow
3:18 PM 32.0 °F 23.0 °F 28.4 °F 87% 29.53 in 2.5 mi NE 11.5 mph - 0.00 in Snow Light Snow
3:40 PM 32.0 °F 22.1 °F 28.4 °F 87% 29.54 in 1.8 mi NE 13.8 mph - 0.00 in Snow Light Snow
3:53 PM 32.0 °F 22.1 °F 28.9 °F 88% 29.54 in 1.5 mi NE 13.8 mph - 0.00 in Snow Light Snow
4:53 PM 32.0 °F 23.0 °F 28.9 °F 88% 29.55 in 1.5 mi NE 11.5 mph - 0.00 in Snow Light Snow
5:11 PM 32.0 °F 22.5 °F 28.4 °F 87% 29.54 in 2.0 mi NE 12.7 mph - 0.00 in Snow Light Snow
5:53 PM 32.0 °F 24.2 °F 28.9 °F 88% 29.56 in 2.0 mi NE 9.2 mph - 0.00 in Snow Light Snow
6:07 PM 32.0 °F 24.2 °F 28.4 °F 87% 29.56 in 4.0 mi NE 9.2 mph - 0.00 in Snow Light Snow
6:53 PM 32.0 °F 24.2 °F 28.9 °F 88% 29.58 in 4.0 mi NE 9.2 mph - 0.00 in Snow Light Snow
7:53 PM 32.0 °F 24.2 °F 28.9 °F 88% 29.59 in 6.0 mi NNE 9.2 mph - 0.00 in Snow Light Snow
8:53 PM 32.0 °F 25.6 °F 28.9 °F 88% 29.61 in 10.0 mi NE 6.9 mph - 0.00 in   Overcast
9:08 PM 32.0 °F 25.6 °F 28.4 °F 87% 29.61 in 10.0 mi NE 6.9 mph - N/A   Overcast
9:40 PM 32.0 °F 27.5 °F 30.2 °F 93% 29.62 in 2.5 mi NE 4.6 mph - N/A   Overcast
9:50 PM 32.0 °F 27.5 °F 30.2 °F 93% 29.62 in 1.2 mi NE 4.6 mph - 0.00 in Snow Light Snow
9:53 PM 32.0 °F 27.5 °F 30.0 °F 92% 29.63 in 1.0 mi NE 4.6 mph - 0.00 in Snow Light Snow
10:16 PM 32.0 °F 27.5 °F 30.2 °F 93% 29.63 in 1.0 mi ENE 4.6 mph - 0.00 in Snow Light Snow
10:21 PM 32.0 °F 27.5 °F 30.2 °F 93% 29.63 in 2.0 mi ENE 4.6 mph - 0.00 in Snow Light Snow
10:29 PM 30.2 °F 26.7 °F 28.4 °F 93% 29.63 in 5.0 mi NE 3.5 mph - 0.00 in Snow Light Snow
10:37 PM 30.2 °F 26.7 °F 28.4 °F 93% 29.63 in 5.0 mi NE 3.5 mph - 0.00 in Snow Light Snow
10:53 PM 30.9 °F - 28.9 °F 92% 29.64 in 7.0 mi Calm Calm - 0.00 in   Overcast
11:01 PM 30.2 °F 26.7 °F 28.4 °F 93% 29.64 in 10.0 mi East 3.5 mph - N/A   Overcast
11:41 PM 30.2 °F 26.7 °F 28.4 °F 93% 29.65 in 8.0 mi East 3.5 mph - N/A   Overcast
11:53 PM 30.9 °F - 28.9 °F 92% 29.65 in 6.0 mi Calm Calm - N/A   Overcast